Powered by GoogleTranslate

Accident Search Results

Description, Abstract, KeywordSICNAICSDate RangeOfficeInsp Nr
Keyword: "Electrician"AllAllAllAllAll

By Date

Results 101 - 120 of 1590
Result Page: 1 2 3 4 5 6 7 8 9 10 ...
  # Summary Nr Event Date Report ID Fat SIC Event Description
101 202715603 09/13/2013 0950633 X 1731 Worker Contacts Energized Conductor And Is Electrocuted
102 202715538 09/06/2013 0950633 X 1731 Electrical Worker Is Killed While Pulling Wire
103 202615100 09/05/2013 1054111   1731,1541,4911 Worker Is Burned In Arc Blast When Bolt Contacts Live Elect
104 202658464 09/05/2013 0950643   1731 Electrical Worker Is Shocked While Installing Switch Gear
105 202458287 08/27/2013 0950647 X 2099 Employee Dies From Electrocution In Amp Test
106 202556825 08/23/2013 0950631   1731 Worker Sustains Multiple Fractures In Fall From Ladder
107 200075463 08/23/2013 0453720   4911 Lineman Is Shocked When Rod Contacts High Voltage Line
108 202691879 08/15/2013 0950624   1731 Electrician Is Injured By Electric Shock
109 170784524 08/15/2013 0950621   1731 Electrician Falls From Ladder And Fractures Both Heels
110 201187077 08/12/2013 0950611   1731 Employee Is Injured In Fall From Ladder
111 201045036 08/07/2013 0953220 X 1731 Employeei Falls From H Frame, Later Dies
112 201129889 07/18/2013 0950613   1731 Worker'S Face Is Crushed Between Scissor Lift And Pipe
113 201615499 06/24/2013 1054113   1711 Worker Searching For Electrical Fault Is Shocked
114 201024734 06/21/2013 0950615   1731 Electrician Falls From Ladder And Sustains Fracture
115 200376507 06/21/2013 0454510   1623 Four Workers Sustain Cuts When Glass Meter Shatters
116 170834287 05/24/2013 0950615   2421 Employee Falls From Height And Fractures Hip
117 201498326 05/04/2013 0950625   1799 Electrician Burned And Knocked Unconscious In Arc Blast
118 202675062 04/30/2013 0950621   7389 Employee Burns Hands And Arm When Contacts Battery Rack
119 202673430 04/25/2013 0950633 X 4911 Employee Is Electrocuted
120 202637112 03/13/2013 0551800   3312 Three Employees Are Burned Due To Arc Flash/Heat

Thank You for Visiting Our Website

You are exiting the Department of Labor's Web server.

The Department of Labor does not endorse, takes no responsibility for, and exercises no control over the linked organization or its views, or contents, nor does it vouch for the accuracy or accessibility of the information contained on the destination server. The Department of Labor also cannot authorize the use of copyrighted materials contained in linked Web sites. Users must request such authorization from the sponsor of the linked Web site. Thank you for visiting our site. Please click the button below to continue.

Close